Location: Unspecified
(43.0000°N, 0.0000°E)
Time: 01:47:37
(UTC+00:00)

PicSat - Pass Details

Date: 18 July 2019
Orbit: 486 x 500 km, 97.5° (Epoch: 23 August)

Event Time Altitude Azimuth Distance (km) Brightness Sun altitude
Exits shadow 21:14:41 28° 129° (SE) 948 ? -14.9°
Maximum altitude 21:16:11 46° 73° (ENE) 677 ? -15.0°
Drops below altitude 10° 21:19:41 10° 360° (N) 1,701 ? -15.5°
Sets 21:21:49 0° 354° (N) 2,586 ? -15.7°
